Limnos, Greece

1:10 PM EET on January 22, 2018 (GMT +0200)
Limnos

Weather History for LGLM - October, 2011

Change the Weather History Date:

Sunday, October 16, 2011

  Actual Average Record
Temperature  
Mean Temperature 50 °F -  
Max Temperature 53 °F 64 °F 77 °F (2012)
Min Temperature 48 °F 51 °F 44 °F (2007)
Degree Days  
Heating Degree Days 14    
Moisture  
Dew Point 46 °F    
Average Humidity 81    
Maximum Humidity 93    
Minimum Humidity 50    
Precipitation  
Precipitation 0.31 in 0.07 in - ()
Sea Level Pressure  
Sea Level Pressure 30.10 in    
Wind  
Wind Speed 13 mph ()    
Max Wind Speed 22 mph    
Max Gust Speed 34 mph    
Visibility 6.0 miles    
Events Rain    
Averages and records for this station are not official NWS values.
T = Trace of Precipitation, MM = Missing Value Source: Averaged Metar Reports

Daily Weather History Graph

Daily Weather History Graph

Search for Another Location

Airport or City:

Trip Planner

Search our weather history database for the weather conditions in past years. The results will help you decide how hot, cold, wet, or windy it might be!

Date:

Astronomy

Oct. 16, 2011 Rise Set
Actual Time 7:29 AM EEST 6:38 PM EEST
Civil Twilight 7:02 AM EEST 7:06 PM EEST
Nautical Twilight 6:31 AM EEST 7:37 PM EEST
Astronomical Twilight 5:59 AM EEST 8:08 PM EEST
Moon 9:08 PM EEST (10/16) 11:30 AM EEST (10/16)
Length of Visible Light 12h 03m
Length of Day
11h 09m
Waning Gibbous, 84% of the Moon is Illuminated
Oct 16
Waning Gibbous
Oct 20
Last Quarter
Oct 26
New
Nov 2
First Quarter
Nov 10
Full

Hourly Weather History & Observations

Time (EEST) Temp. Dew Point Humidity Pressure Visibility Wind Dir Wind Speed Gust Speed Precip Events Conditions
12:20 AM 51.8 °F 48.2 °F 88% 30.12 in 6.2 mi NE 17.3 mph 28.8 mph N/A Rain Light Rain
12:50 AM 51.8 °F 48.2 °F 88% 30.12 in 6.2 mi NE 13.8 mph 25.3 mph N/A Rain Light Rain
1:20 AM 51.8 °F 48.2 °F 88% 30.12 in 6.2 mi NE 13.8 mph 25.3 mph N/A   Overcast
1:50 AM 51.8 °F 48.2 °F 88% 30.12 in 6.2 mi NE 13.8 mph - N/A Rain Light Rain
2:20 AM 51.8 °F 48.2 °F 88% 30.12 in 6.2 mi NE 13.8 mph - N/A Rain Light Rain
2:50 AM 51.8 °F 48.2 °F 88% 30.09 in 6.2 mi ENE 9.2 mph - N/A   Overcast
3:00 AM 52 °F 49 °F 84% 30.10 in 6 mi ENE 9.2 mph - - Rain Light Rain
3:20 AM 51.8 °F 48.2 °F 88% 30.09 in 6.2 mi ENE 9.2 mph - N/A   Overcast
3:50 AM 53.6 °F 50.0 °F 88% 30.06 in 6.2 mi NE 10.4 mph - N/A   Overcast
4:20 AM 53.6 °F 50.0 °F 88% 30.06 in 6.2 mi NE 13.8 mph - N/A   Overcast
4:50 AM 53.6 °F 50.0 °F 88% 30.06 in 6.2 mi NE 11.5 mph - N/A   Overcast
5:20 AM 53.6 °F 50.0 °F 88% 30.06 in 6.2 mi NE 11.5 mph - N/A   Overcast
5:50 AM 53.6 °F 48.2 °F 82% 30.04 in 6.2 mi NE 12.7 mph - N/A   Overcast
6:20 AM 53.6 °F 48.2 °F 82% 30.04 in 6.2 mi NE 12.7 mph - N/A   Overcast
6:50 AM 53.6 °F 48.2 °F 82% 30.06 in 6.2 mi ENE 11.5 mph - N/A   Overcast
7:20 AM 53.6 °F 48.2 °F 82% 30.06 in 6.2 mi ENE 11.5 mph - N/A   Overcast
7:50 AM 53.6 °F 48.2 °F 82% 30.06 in 6.2 mi ENE 11.5 mph - N/A   Overcast
8:20 AM 53.6 °F 48.2 °F 82% 30.06 in 6.2 mi ENE 17.3 mph - N/A   Overcast
8:50 AM 53.6 °F 46.4 °F 77% 30.06 in 6.2 mi ENE 16.1 mph 27.6 mph N/A   Overcast
9:00 AM 54 °F 46 °F 67% 30.07 in 6 mi ENE 16.1 mph - -   Overcast
9:20 AM 53.6 °F 48.2 °F 82% 30.06 in 6.2 mi ENE 16.1 mph 27.6 mph N/A   Overcast
9:50 AM 53.6 °F 46.4 °F 77% 30.09 in 6.2 mi NE 16.1 mph 27.6 mph N/A   Overcast
10:20 AM 53.6 °F 46.4 °F 77% 30.09 in 6.2 mi NE 15.0 mph 26.5 mph N/A   Overcast
10:50 AM 53.6 °F 46.4 °F 77% 30.09 in 6.2 mi ENE 17.3 mph 28.8 mph N/A   Overcast
11:20 AM 53.6 °F 46.4 °F 77% 30.09 in 6.2 mi NNE 16.1 mph - N/A Rain Light Rain
11:50 AM 51.8 °F 44.6 °F 76% 30.09 in 5.0 mi NNE 16.1 mph - N/A Rain Rain
12:20 PM 51.8 °F 44.6 °F 76% 30.09 in 6.2 mi NE 17.3 mph - N/A Rain Light Rain
12:50 PM 50.0 °F 46.4 °F 87% 30.12 in - North - - N/A Rain Light Rain
1:20 PM 50.0 °F 46.4 °F 87% 30.12 in 6.2 mi NNE 16.1 mph - N/A Rain Light Rain
1:50 PM 48.2 °F 46.4 °F 93% 30.12 in 6.2 mi NE 9.2 mph - N/A Rain Rain
2:20 PM 48.2 °F 46.4 °F 93% 30.12 in 4.3 mi NE 13.8 mph - N/A Rain Rain
2:50 PM 50.0 °F 44.6 °F 82% 30.12 in 5.0 mi NE 15.0 mph 26.5 mph N/A Rain Light Rain
3:00 PM 49 °F 44 °F 76% 30.13 in 5 mi NE 15.0 mph - - Rain Light Rain
3:20 PM 50.0 °F 44.6 °F 82% 30.12 in 5.0 mi NE 15.0 mph 26.5 mph N/A Rain Light Rain
3:50 PM 50.0 °F 44.6 °F 82% 30.12 in 6.2 mi NE 17.3 mph 28.8 mph N/A Rain Light Rain
4:20 PM 50.0 °F 44.6 °F 82% 30.12 in 6.2 mi NE 17.3 mph 28.8 mph N/A Rain Light Rain
4:50 PM 48.2 °F 44.6 °F 87% 30.12 in 6.2 mi NE 13.8 mph 25.3 mph N/A Rain Light Rain
5:20 PM 48.2 °F 44.6 °F 87% 30.12 in 6.2 mi ENE 18.4 mph - N/A Rain Light Rain
5:50 PM 48.2 °F 41.0 °F 76% 30.12 in 6.2 mi NE 15.0 mph 26.5 mph N/A Rain Light Rain
6:20 PM 48.2 °F 41.0 °F 76% 30.12 in 6.2 mi NE 17.3 mph 28.8 mph N/A   Overcast
6:50 PM 48.2 °F 41.0 °F 76% 30.12 in 6.2 mi NE 21.9 mph 33.4 mph N/A   Overcast
7:20 PM 48.2 °F 41.0 °F 76% 30.15 in 6.2 mi NE 20.7 mph 32.2 mph N/A   Overcast
7:50 PM 48.2 °F 41.0 °F 76% 30.15 in 6.2 mi NE 16.1 mph 27.6 mph N/A   Overcast
8:20 PM 48.2 °F 41.0 °F 76% 30.15 in 6.2 mi NE 16.1 mph 27.6 mph N/A   Overcast
8:50 PM 50.0 °F 37.4 °F 62% 30.15 in 6.2 mi NE 20.7 mph 32.2 mph N/A   Overcast
9:00 PM 50 °F 37 °F 50% 30.16 in 6 mi NE 20.7 mph - -   Overcast
9:50 PM 48.2 °F 39.2 °F 71% 30.18 in 6.2 mi NE 20.7 mph 33.4 mph N/A   Overcast
10:50 PM 48.2 °F 41.0 °F 76% 30.15 in 6.2 mi ENE 20.7 mph 34.5 mph N/A   Overcast
11:50 PM 48.2 °F 41.0 °F 76% 30.12 in 6.2 mi ENE 13.8 mph 25.3 mph N/A   Overcast